Total_Precipitation_Accumulation
2.02 2.17 2.05 1.94 1.98 1.97 2.13 2.33 2.27 1.94 1.62 1.46 1.36 1.20 1.21 1.20 1.25 1.23 1.18 1.07 0.94 0.87 0.82 0.78 0.78 0.81 0.89 1.03 1.19 1.35 1.44 1.52 1.60 1.69 1.83 1.99 2.18 2.40
1.94 2.02 1.99 1.98 2.16 2.12 2.17 2.29 2.38 2.24 1.75 1.54 1.46 1.23 1.34 1.11 1.16 1.15 1.15 1.09 0.92 0.82 0.79 0.76 0.75 0.75 0.76 0.79 0.88 1.00 1.14 1.24 1.32 1.41 1.46 1.49 1.53 1.65
1.62 1.66 1.64 1.82 2.00 1.95 2.05 2.12 2.24 2.32 1.90 1.67 1.76 1.64 1.66 1.48 1.34 1.23 1.07 1.07 0.97 0.91 0.83 0.76 0.73 0.72 0.75 0.74 0.72 0.77 0.87 0.96 1.05 1.18 1.32 1.42 1.46 1.49
1.56 1.60 1.50 1.62 1.74 1.77 1.92 2.00 2.13 2.32 2.08 1.90 1.97 2.01 1.95 1.78 1.66 1.48 1.15 0.98 0.99 1.03 0.89 0.78 0.73 0.72 0.77 0.76 0.71 0.68 0.71 0.75 0.80 0.87 1.01 1.15 1.29 1.42
1.43 1.40 1.38 1.50 1.54 1.65 1.80 1.79 1.84 2.13 2.19 2.00 1.99 2.28 2.20 2.01 2.03 1.73 1.50 1.42 1.06 1.04 0.94 0.79 0.73 0.70 0.71 0.78 0.79 0.74 0.71 0.70 0.71 0.76 0.87 1.00 1.11 1.19
1.24 1.17 1.20 1.34 1.37 1.47 1.53 1.60 1.71 1.89 2.07 2.08 2.02 2.20 2.27 2.15 2.30 2.06 1.81 1.65 1.39 1.14 1.11 0.91 0.83 0.80 0.77 0.77 0.78 0.79 0.80 0.78 0.79 0.85 0.89 0.94 1.04 1.13
1.18 1.05 0.97 0.97 1.01 1.15 1.15 1.32 1.55 1.72 1.80 1.93 1.99 2.09 2.30 2.35 2.18 2.13 1.98 1.83 1.73 1.60 1.59 1.21 0.94 0.84 0.84 0.82 0.82 0.87 0.93 0.95 0.98 1.04 1.13 1.16 1.19 1.23
1.19 1.17 1.02 0.92 0.88 0.91 0.94 1.00 1.14 1.28 1.47 1.70 1.79 1.88 2.10 2.32 2.32 2.35 2.27 2.07 1.91 1.78 1.93 1.90 1.57 1.31 1.10 0.88 0.88 0.92 1.00 1.09 1.13 1.18 1.26 1.39 1.51 1.51
1.18 1.17 0.96 0.85 0.91 0.89 0.93 0.94 0.98 0.99 1.05 1.26 1.39 1.44 1.66 1.99 2.33 2.41 2.49 2.36 2.14 2.09 2.23 2.30 2.36 2.12 1.57 1.22 1.16 1.01 1.04 1.15 1.20 1.24 1.30 1.33 1.48 1.64
1.12 1.15 1.14 1.07 1.01 1.04 1.07 1.02 0.91 0.89 0.91 0.88 0.95 1.14 1.32 1.58 1.98 2.18 2.48 2.65 2.49 2.41 2.47 2.55 2.57 2.79 2.30 1.74 1.55 1.31 1.25 1.27 1.32 1.33 1.36 1.42 1.46 1.54
1.13 1.14 1.12 1.06 1.06 1.04 1.06 1.09 0.98 0.92 0.89 0.88 0.86 0.97 1.17 1.31 1.60 1.94 2.21 2.39 2.47 2.56 2.64 2.71 2.63 2.77 3.06 2.61 1.91 1.55 1.31 1.24 1.27 1.32 1.36 1.46 1.51 1.49
1.22 1.22 1.11 0.98 1.04 1.00 0.92 0.99 0.99 0.98 1.03 1.00 0.98 1.01 1.08 1.23 1.49 1.74 1.99 2.24 2.29 2.37 2.25 2.23 2.25 2.38 2.81 3.01 2.65 2.04 1.58 1.39 1.27 1.24 1.27 1.38 1.49 1.36
1.24 1.25 1.19 1.05 0.88 0.85 0.84 0.88 0.93 1.02 1.13 1.15 1.17 1.21 1.28 1.32 1.37 1.55 1.83 2.07 2.14 1.95 1.73 1.85 2.01 2.13 2.20 2.38 2.56 2.51 2.13 1.78 1.55 1.38 1.30 1.28 1.32 1.30
1.44 1.40 1.34 1.18 1.01 0.89 0.82 0.86 0.93 0.95 1.03 1.13 1.12 1.11 1.17 1.21 1.26 1.43 1.63 1.78 1.88 1.87 1.81 1.92 2.06 2.09 2.16 2.17 2.21 2.28 2.32 2.14 1.94 1.80 1.70 1.67 1.50 1.42
1.58 1.58 1.48 1.27 1.09 0.94 0.86 0.88 0.90 0.89 0.95 1.02 0.98 0.95 1.00 1.08 1.16 1.31 1.48 1.66 1.72 1.67 1.68 1.78 1.89 1.91 2.02 2.08 2.03 1.95 2.01 2.09 2.08 2.05 2.05 2.01 1.86 1.71
1.58 1.53 1.46 1.36 1.20 1.11 1.06 0.98 0.91 0.97 1.00 1.00 1.01 1.01 1.06 1.16 1.26 1.30 1.43 1.57 1.74 1.71 1.66 1.69 1.74 1.84 1.82 1.69 1.63 1.51 1.49 1.60 1.76 1.91 2.09 2.26 2.29 2.21
1.73 1.60 1.52 1.41 1.31 1.26 1.21 1.14 1.06 1.06 1.05 1.04 1.07 1.06 1.06 1.11 1.18 1.22 1.32 1.38 1.45 1.49 1.51 1.57 1.69 1.81 1.81 1.73 1.61 1.43 1.38 1.31 1.36 1.65 1.96 2.19 2.21 2.08
1.45 1.43 1.44 1.41 1.35 1.30 1.27 1.19 1.14 1.10 1.09 1.09 1.10 1.08 1.03 1.04 1.11 1.23 1.34 1.33 1.29 1.29 1.35 1.40 1.61 1.81 1.85 1.69 1.40 1.29 1.28 1.24 1.24 1.42 1.59 1.67 1.67 1.57
1.22 1.29 1.26 1.26 1.25 1.25 1.23 1.17 1.12 1.11 1.15 1.15 1.10 1.10 1.09 1.10 1.13 1.22 1.32 1.34 1.28 1.26 1.35 1.49 1.61 1.72 1.70 1.50 1.31 1.09 1.09 1.12 1.23 1.39 1.46 1.43 1.33 1.20
1.14 1.19 1.20 1.21 1.23 1.25 1.25 1.20 1.19 1.20 1.23 1.24 1.22 1.20 1.21 1.22 1.23 1.25 1.31 1.36 1.32 1.30 1.37 1.48 1.51 1.54 1.53 1.42 1.32 1.19 1.00 1.06 1.12 1.20 1.29 1.31 1.21 1.07
1.25 1.28 1.28 1.27 1.29 1.33 1.33 1.29 1.29 1.25 1.22 1.26 1.25 1.24 1.22 1.22 1.27 1.28 1.33 1.39 1.35 1.32 1.28 1.28 1.35 1.45 1.57 1.73 1.62 1.40 1.23 1.10 1.11 1.13 1.20 1.30 1.31 1.25
1.20 1.25 1.26 1.25 1.28 1.32 1.30 1.27 1.28 1.25 1.22 1.21 1.20 1.21 1.21 1.19 1.20 1.26 1.29 1.31 1.28 1.24 1.20 1.22 1.37 1.54 1.62 1.67 1.57 1.45 1.39 1.32 1.26 1.21 1.15 1.08 1.10 1.12
1.17 1.20 1.17 1.14 1.17 1.18 1.13 1.12 1.16 1.20 1.22 1.21 1.19 1.16 1.15 1.12 1.11 1.17 1.23 1.27 1.28 1.30 1.32 1.36 1.40 1.48 1.52 1.54 1.58 1.53 1.43 1.40 1.40 1.38 1.29 1.10 0.85 0.74